| time (UTC) | temp F | wind direction | speed MPH | gust MPH | rain 1hr in | rain 24hr in | rain mn in | humidity % | barometer mb |
| 20260504174645 | 75 | 5 | 2.0 | 4.0 | 0.00 | 0.00 | 0.00 | 57 | 1017.0 |
| 20260504174141 | 76 | 41 | 5.0 | 8.0 | 0.00 | 0.00 | 0.00 | 57 | 1017.0 |
| 20260504173643 | 76 | 23 | 4.0 | 6.0 | 0.00 | 0.00 | 0.00 | 56 | 1017.0 |
| 20260504173140 | 76 | 39 | 2.0 | 4.0 | 0.00 | 0.00 | 0.00 | 55 | 1017.0 |
| 20260504172641 | 75 | 347 | 1.0 | 3.0 | 0.00 | 0.00 | 0.00 | 56 | 1017.0 |
| 20260504172143 | 75 | 22 | 4.0 | 6.0 | 0.00 | 0.00 | 0.00 | 56 | 1017.0 |
| 20260504171641 | 76 | 13 | 3.0 | 4.0 | 0.00 | 0.00 | 0.00 | 56 | 1017.0 |
| 20260504171141 | 76 | 47 | 2.0 | 4.0 | 0.00 | 0.00 | 0.00 | 55 | 1017.0 |
| 20260504170642 | 76 | 43 | 3.0 | 5.0 | 0.00 | 0.00 | 0.00 | 55 | 1017.0 |
| 20260504170142 | 75 | 16 | 1.0 | 2.0 | 0.00 | 0.00 | 0.00 | 53 | 1017.0 |
| 20260504160140 | 74 | 20 | 3.0 | 5.0 | 0.00 | 0.00 | 0.00 | 61 | 1018.0 |
| 20260504151141 | 72 | 36 | 3.0 | 5.0 | 0.00 | 0.00 | 0.00 | 62 | 1018.0 |
| 20260504150643 | 72 | 22 | 3.0 | 5.0 | 0.00 | 0.00 | 0.00 | 62 | 1018.0 |
| 20260504150142 | 72 | 15 | 4.0 | 6.0 | 0.00 | 0.00 | 0.00 | 61 | 1018.0 |
| 20260504141141 | 71 | 48 | 4.0 | 6.0 | 0.00 | 0.00 | 0.00 | 63 | 1018.0 |
| 20260504140642 | 71 | 45 | 3.0 | 5.0 | 0.00 | 0.00 | 0.00 | 63 | 1018.0 |
| 20260504140142 | 72 | 23 | 3.0 | 5.0 | 0.00 | 0.00 | 0.00 | 62 | 1018.0 |
| 20260504130642 | 69 | 347 | 1.0 | 2.0 | 0.00 | 0.00 | 0.00 | 66 | 1018.0 |
| 20260504130143 | 69 | 343 | 1.0 | 2.0 | 0.00 | 0.00 | 0.00 | 67 | 1018.0 |
| 20260504120142 | 57 | 318 | 0.0 | 0.0 | 0.00 | 0.00 | 0.00 | 87 | 1018.0 |
| 20260504110641 | 58 | 290 | 0.0 | 0.0 | 0.00 | 0.00 | 0.00 | 81 | 1017.0 |
| 20260504110139 | 58 | 293 | 0.0 | 0.0 | 0.00 | 0.00 | 0.00 | 80 | 1017.0 |
| 20260504100142 | 60 | 252 | 1.0 | 2.0 | 0.00 | 0.00 | 0.00 | 78 | 1018.0 |
| 20260504090141 | 60 | 248 | 1.0 | 2.0 | 0.00 | 0.00 | 0.00 | 77 | 1018.0 |
| 20260504081642 | 61 | 270 | 0.0 | 1.0 | 0.00 | 0.00 | 0.00 | 73 | 1017.0 |
| 20260504081141 | 61 | 264 | 0.0 | 1.0 | 0.00 | 0.00 | 0.00 | 72 | 1017.0 |
| 20260504080642 | 61 | 288 | 0.0 | 1.0 | 0.00 | 0.00 | 0.00 | 72 | 1017.0 |
| 20260504080140 | 61 | 271 | 0.0 | 2.0 | 0.00 | 0.00 | 0.00 | 72 | 1017.0 |
| 20260504070141 | 62 | 248 | 1.0 | 2.0 | 0.00 | 0.00 | 0.00 | 70 | 1018.0 |
| 20260504060141 | 63 | 299 | 0.0 | 1.0 | 0.00 | 0.00 | 0.00 | 68 | 1019.0 |
| 20260504050639 | 65 | 247 | 1.0 | 3.0 | 0.00 | 0.00 | 0.00 | 64 | 1019.0 |
| 20260504050140 | 65 | 223 | 2.0 | 3.0 | 0.00 | 0.00 | 0.00 | 64 | 1019.0 |
| 20260504045641 | 65 | 307 | 0.0 | 0.0 | 0.00 | 0.00 | 0.00 | 64 | 1019.0 |
| 20260504045139 | 66 | 237 | 1.0 | 2.0 | 0.00 | 0.00 | 0.00 | 63 | 1019.0 |
| 20260504044640 | 66 | 277 | 0.0 | 2.0 | 0.00 | 0.00 | 0.00 | 63 | 1019.0 |
| 20260504044139 | 66 | 247 | 0.0 | 2.0 | 0.00 | 0.00 | 0.00 | 62 | 1019.0 |
| 20260504043639 | 66 | 284 | 0.0 | 1.0 | 0.00 | 0.00 | 0.00 | 62 | 1019.0 |
| 20260504043139 | 66 | 231 | 1.0 | 2.0 | 0.00 | 0.00 | 0.00 | 62 | 1019.0 |
| 20260504042639 | 66 | 236 | 2.0 | 2.0 | 0.00 | 0.00 | 0.00 | 61 | 1019.0 |
| 20260504042139 | 66 | 221 | 2.0 | 3.0 | 0.00 | 0.00 | 0.00 | 61 | 1019.0 |
| 20260504041641 | 66 | 276 | 1.0 | 2.0 | 0.00 | 0.00 | 0.00 | 60 | 1019.0 |
| 20260504041140 | 67 | 274 | 0.0 | 2.0 | 0.00 | 0.00 | 0.00 | 60 | 1019.0 |
| 20260504040639 | 67 | 268 | 0.0 | 2.0 | 0.00 | 0.00 | 0.00 | 60 | 1019.0 |
| 20260504040139 | 67 | 241 | 2.0 | 4.0 | 0.00 | 0.00 | 0.00 | 59 | 1019.0 |
| 20260504035640 | 67 | 254 | 2.0 | 3.0 | 0.00 | 0.00 | 0.00 | 59 | 1019.0 |
| 20260504035140 | 67 | 252 | 1.0 | 3.0 | 0.00 | 0.00 | 0.00 | 59 | 1019.0 |
| 20260504034640 | 67 | 263 | 1.0 | 3.0 | 0.00 | 0.00 | 0.00 | 59 | 1019.0 |
| 20260504034140 | 66 | 228 | 2.0 | 4.0 | 0.00 | 0.00 | 0.00 | 60 | 1019.0 |
| 20260504033639 | 66 | 259 | 1.0 | 1.0 | 0.00 | 0.00 | 0.00 | 59 | 1019.0 |
| 20260504033139 | 66 | 248 | 1.0 | 2.0 | 0.00 | 0.00 | 0.00 | 61 | 1019.0 |
| 20260504032639 | 66 | 301 | 0.0 | 1.0 | 0.00 | 0.00 | 0.00 | 61 | 1019.0 |
| 20260504032140 | 67 | 282 | 0.0 | 1.0 | 0.00 | 0.00 | 0.00 | 60 | 1019.0 |
| 20260504031639 | 67 | 285 | 0.0 | 2.0 | 0.00 | 0.00 | 0.00 | 59 | 1019.0 |
| 20260504031141 | 67 | 289 | 0.0 | 1.0 | 0.00 | 0.00 | 0.00 | 58 | 1019.0 |
| 20260504030639 | 67 | 246 | 0.0 | 1.0 | 0.00 | 0.00 | 0.00 | 57 | 1019.0 |
| 20260504030140 | 67 | 280 | 0.0 | 2.0 | 0.00 | 0.00 | 0.00 | 57 | 1019.0 |
| 20260504025640 | 68 | 0 | 0.0 | 0.0 | 0.00 | 0.00 | 0.00 | 56 | 1019.0 |
| 20260504025139 | 68 | 266 | 0.0 | 1.0 | 0.00 | 0.00 | 0.00 | 55 | 1019.0 |
| 20260504024639 | 68 | 0 | 0.0 | 0.0 | 0.00 | 0.00 | 0.00 | 55 | 1019.0 |
| 20260504024139 | 68 | 290 | 0.0 | 1.0 | 0.00 | 0.00 | 0.00 | 54 | 1019.0 |
| 20260504023640 | 68 | 289 | 0.0 | 1.0 | 0.00 | 0.00 | 0.00 | 54 | 1019.0 |
| 20260504023140 | 69 | 297 | 0.0 | 1.0 | 0.00 | 0.00 | 0.00 | 53 | 1019.0 |
| 20260504022639 | 69 | 242 | 0.0 | 1.0 | 0.00 | 0.00 | 0.00 | 53 | 1019.0 |
| 20260504022139 | 69 | 263 | 1.0 | 1.0 | 0.00 | 0.00 | 0.00 | 54 | 1019.0 |
| 20260504021639 | 69 | 306 | 0.0 | 1.0 | 0.00 | 0.00 | 0.00 | 53 | 1019.0 |
| 20260504021139 | 69 | 305 | 0.0 | 1.0 | 0.00 | 0.00 | 0.00 | 53 | 1019.0 |
| 20260504020639 | 69 | 341 | 0.0 | 2.0 | 0.00 | 0.00 | 0.00 | 52 | 1019.0 |
| 20260504020140 | 69 | 306 | 0.0 | 1.0 | 0.00 | 0.00 | 0.00 | 53 | 1019.0 |
| 20260504015640 | 68 | 292 | 0.0 | 0.0 | 0.00 | 0.00 | 0.00 | 54 | 1018.0 |
| 20260504015140 | 67 | 0 | 0.0 | 0.0 | 0.00 | 0.00 | 0.00 | 54 | 1018.0 |
| 20260504014641 | 67 | 316 | 0.0 | 0.0 | 0.00 | 0.00 | 0.00 | 57 | 1018.0 |
| 20260504014140 | 67 | 0 | 0.0 | 0.0 | 0.00 | 0.00 | 0.00 | 60 | 1018.0 |
| 20260504013640 | 67 | 0 | 0.0 | 0.0 | 0.00 | 0.00 | 0.00 | 58 | 1018.0 |
| 20260504013140 | 68 | 327 | 0.0 | 1.0 | 0.00 | 0.00 | 0.00 | 56 | 1018.0 |
| 20260504012640 | 68 | 0 | 0.0 | 0.0 | 0.00 | 0.00 | 0.00 | 56 | 1018.0 |
| 20260504012139 | 69 | 320 | 0.0 | 1.0 | 0.00 | 0.00 | 0.00 | 55 | 1018.0 |
| 20260504011639 | 69 | 0 | 0.0 | 0.0 | 0.00 | 0.00 | 0.00 | 56 | 1018.0 |
| 20260504011140 | 70 | 0 | 0.0 | 0.0 | 0.00 | 0.00 | 0.00 | 54 | 1018.0 |
| 20260504010640 | 70 | 0 | 0.0 | 0.0 | 0.00 | 0.00 | 0.00 | 53 | 1018.0 |
| 20260504010139 | 70 | 305 | 0.0 | 0.0 | 0.00 | 0.00 | 0.00 | 52 | 1018.0 |
| 20260504005639 | 70 | 0 | 0.0 | 0.0 | 0.00 | 0.00 | 0.00 | 51 | 1018.0 |
| 20260504005139 | 71 | 0 | 0.0 | 0.0 | 0.00 | 0.00 | 0.00 | 50 | 1018.0 |
| 20260504004640 | 71 | 0 | 0.0 | 0.0 | 0.00 | 0.00 | 0.00 | 49 | 1018.0 |
| 20260504004139 | 72 | 341 | 0.0 | 1.0 | 0.00 | 0.00 | 0.00 | 48 | 1018.0 |
| 20260504003639 | 72 | 332 | 0.0 | 1.0 | 0.00 | 0.00 | 0.00 | 48 | 1018.0 |
| 20260504003140 | 72 | 330 | 0.0 | 1.0 | 0.00 | 0.00 | 0.00 | 45 | 1018.0 |
| 20260504002641 | 73 | 327 | 0.0 | 2.0 | 0.00 | 0.00 | 0.00 | 45 | 1018.0 |
| 20260504002139 | 73 | 0 | 0.0 | 0.0 | 0.00 | 0.00 | 0.00 | 46 | 1018.0 |
| 20260504001639 | 73 | 337 | 0.0 | 2.0 | 0.00 | 0.00 | 0.00 | 45 | 1018.0 |
| 20260504001140 | 73 | 0 | 0.0 | 0.0 | 0.00 | 0.00 | 0.00 | 45 | 1018.0 |
| 20260504000639 | 74 | 320 | 0.0 | 1.0 | 0.00 | 0.00 | 0.00 | 43 | 1018.0 |
| 20260504000139 | 74 | 333 | 0.0 | 1.0 | 0.00 | 0.00 | 0.00 | 43 | 1018.0 |
| 20260503235639 | 74 | 354 | 0.0 | 1.0 | 0.00 | 0.00 | 0.00 | 43 | 1018.0 |
| 20260503235140 | 74 | 2 | 1.0 | 1.0 | 0.00 | 0.00 | 0.00 | 42 | 1018.0 |
| 20260503234639 | 75 | 316 | 1.0 | 2.0 | 0.00 | 0.00 | 0.00 | 41 | 1018.0 |
| 20260503234139 | 75 | 283 | 1.0 | 2.0 | 0.00 | 0.00 | 0.00 | 41 | 1018.0 |
| 20260503233639 | 76 | 299 | 0.0 | 1.0 | 0.00 | 0.00 | 0.00 | 40 | 1018.0 |
| 20260503233140 | 77 | 304 | 1.0 | 2.0 | 0.00 | 0.00 | 0.00 | 39 | 1018.0 |
| 20260503232639 | 78 | 358 | 1.0 | 3.0 | 0.00 | 0.00 | 0.00 | 38 | 1018.0 |
| 20260503232139 | 78 | 14 | 2.0 | 3.0 | 0.00 | 0.00 | 0.00 | 37 | 1018.0 |
| 20260503231639 | 78 | 357 | 1.0 | 4.0 | 0.00 | 0.00 | 0.00 | 36 | 1018.0 |
| 20260503231140 | 79 | 330 | 0.0 | 1.0 | 0.00 | 0.00 | 0.00 | 37 | 1018.0 |
| 20260503230639 | 79 | 42 | 2.0 | 4.0 | 0.00 | 0.00 | 0.00 | 37 | 1018.0 |
| 20260503230142 | 79 | 328 | 1.0 | 3.0 | 0.00 | 0.00 | 0.00 | 36 | 1018.0 |
| 20260503225639 | 79 | 349 | 1.0 | 2.0 | 0.00 | 0.00 | 0.00 | 36 | 1018.0 |
| 20260503225139 | 79 | 338 | 1.0 | 3.0 | 0.00 | 0.00 | 0.00 | 36 | 1018.0 |
| 20260503224640 | 79 | 281 | 0.0 | 2.0 | 0.00 | 0.00 | 0.00 | 36 | 1018.0 |
| 20260503224139 | 79 | 322 | 0.0 | 2.0 | 0.00 | 0.00 | 0.00 | 36 | 1018.0 |
| 20260503223639 | 79 | 352 | 0.0 | 2.0 | 0.00 | 0.00 | 0.00 | 36 | 1018.0 |
| 20260503223139 | 79 | 35 | 2.0 | 4.0 | 0.00 | 0.00 | 0.00 | 38 | 1018.0 |
| 20260503222639 | 79 | 60 | 1.0 | 3.0 | 0.00 | 0.00 | 0.00 | 37 | 1018.0 |
| 20260503222139 | 79 | 356 | 1.0 | 2.0 | 0.00 | 0.00 | 0.00 | 36 | 1018.0 |
| 20260503221639 | 80 | 304 | 2.0 | 4.0 | 0.00 | 0.00 | 0.00 | 35 | 1018.0 |
| 20260503221143 | 80 | 351 | 1.0 | 2.0 | 0.00 | 0.00 | 0.00 | 36 | 1018.0 |
| 20260503220639 | 80 | 1 | 1.0 | 2.0 | 0.00 | 0.00 | 0.00 | 36 | 1018.0 |
| 20260503220140 | 79 | 350 | 0.0 | 2.0 | 0.00 | 0.00 | 0.00 | 37 | 1019.0 |
| 20260503215639 | 78 | 354 | 1.0 | 4.0 | 0.00 | 0.00 | 0.00 | 37 | 1019.0 |
| 20260503215139 | 78 | 44 | 1.0 | 3.0 | 0.00 | 0.00 | 0.00 | 36 | 1019.0 |
| 20260503214640 | 78 | 12 | 2.0 | 4.0 | 0.00 | 0.00 | 0.00 | 38 | 1019.0 |
| 20260503214139 | 79 | 12 | 2.0 | 4.0 | 0.00 | 0.00 | 0.00 | 36 | 1019.0 |
| 20260503213639 | 78 | 300 | 1.0 | 2.0 | 0.00 | 0.00 | 0.00 | 37 | 1019.0 |
| 20260503213139 | 78 | 333 | 2.0 | 4.0 | 0.00 | 0.00 | 0.00 | 36 | 1019.0 |
| 20260503212639 | 79 | 2 | 1.0 | 3.0 | 0.00 | 0.00 | 0.00 | 36 | 1019.0 |
| 20260503212140 | 79 | 18 | 2.0 | 4.0 | 0.00 | 0.00 | 0.00 | 36 | 1019.0 |
| 20260503211639 | 78 | 28 | 0.0 | 2.0 | 0.00 | 0.00 | 0.00 | 35 | 1019.0 |
| 20260503211139 | 78 | 22 | 2.0 | 4.0 | 0.00 | 0.00 | 0.00 | 38 | 1019.0 |
| 20260503210639 | 77 | 343 | 2.0 | 3.0 | 0.00 | 0.00 | 0.00 | 37 | 1019.0 |
| 20260503210140 | 77 | 355 | 1.0 | 3.0 | 0.00 | 0.00 | 0.00 | 38 | 1019.0 |
| 20260503205640 | 77 | 40 | 3.0 | 5.0 | 0.00 | 0.00 | 0.00 | 37 | 1019.0 |
| 20260503205139 | 76 | 248 | 1.0 | 3.0 | 0.00 | 0.00 | 0.00 | 38 | 1020.0 |
| 20260503204639 | 77 | 49 | 3.0 | 5.0 | 0.00 | 0.00 | 0.00 | 39 | 1020.0 |
| 20260503204139 | 77 | 24 | 2.0 | 4.0 | 0.00 | 0.00 | 0.00 | 41 | 1020.0 |
| 20260503203639 | 77 | 342 | 1.0 | 2.0 | 0.00 | 0.00 | 0.00 | 38 | 1020.0 |
| 20260503203140 | 76 | 355 | 1.0 | 3.0 | 0.00 | 0.00 | 0.00 | 38 | 1020.0 |
| 20260503202640 | 76 | 22 | 3.0 | 4.0 | 0.00 | 0.00 | 0.00 | 39 | 1020.0 |
| 20260503202140 | 76 | 52 | 3.0 | 5.0 | 0.00 | 0.00 | 0.00 | 39 | 1020.0 |
| 20260503201640 | 76 | 13 | 1.0 | 3.0 | 0.00 | 0.00 | 0.00 | 37 | 1020.0 |
| 20260503201140 | 76 | 38 | 2.0 | 5.0 | 0.00 | 0.00 | 0.00 | 40 | 1020.0 |
| 20260503200639 | 76 | 56 | 1.0 | 3.0 | 0.00 | 0.00 | 0.00 | 35 | 1020.0 |
| 20260503200139 | 76 | 35 | 2.0 | 5.0 | 0.00 | 0.00 | 0.00 | 37 | 1020.0 |
| 20260503195640 | 75 | 20 | 1.0 | 4.0 | 0.00 | 0.00 | 0.00 | 39 | 1020.0 |
| 20260503195139 | 76 | 7 | 2.0 | 5.0 | 0.00 | 0.00 | 0.00 | 37 | 1020.0 |
| 20260503194639 | 75 | 9 | 2.0 | 4.0 | 0.00 | 0.00 | 0.00 | 38 | 1020.0 |
| 20260503194140 | 76 | 40 | 3.0 | 4.0 | 0.00 | 0.00 | 0.00 | 36 | 1021.0 |
| 20260503193639 | 76 | 39 | 2.0 | 3.0 | 0.00 | 0.00 | 0.00 | 36 | 1021.0 |
| 20260503193140 | 76 | 70 | 2.0 | 4.0 | 0.00 | 0.00 | 0.00 | 36 | 1021.0 |
| 20260503192639 | 76 | 62 | 1.0 | 2.0 | 0.00 | 0.00 | 0.00 | 37 | 1021.0 |
| 20260503192141 | 76 | 24 | 1.0 | 3.0 | 0.00 | 0.00 | 0.00 | 39 | 1021.0 |
| 20260503191640 | 76 | 30 | 0.0 | 2.0 | 0.00 | 0.00 | 0.00 | 38 | 1021.0 |
| 20260503191140 | 76 | 17 | 1.0 | 2.0 | 0.00 | 0.00 | 0.00 | 37 | 1021.0 |
| 20260503190640 | 76 | 17 | 1.0 | 4.0 | 0.00 | 0.00 | 0.00 | 38 | 1021.0 |
| 20260503190139 | 75 | 5 | 0.0 | 2.0 | 0.00 | 0.00 | 0.00 | 37 | 1021.0 |
| 20260503185640 | 75 | 36 | 2.0 | 3.0 | 0.00 | 0.00 | 0.00 | 37 | 1021.0 |
| 20260503185139 | 75 | 27 | 2.0 | 4.0 | 0.00 | 0.00 | 0.00 | 36 | 1021.0 |
| 20260503184640 | 74 | 13 | 2.0 | 3.0 | 0.00 | 0.00 | 0.00 | 38 | 1021.0 |
| 20260503184139 | 74 | 11 | 3.0 | 6.0 | 0.00 | 0.00 | 0.00 | 39 | 1021.0 |
| 20260503183639 | 75 | 36 | 3.0 | 6.0 | 0.00 | 0.00 | 0.00 | 37 | 1021.0 |
| 20260503183139 | 76 | 20 | 4.0 | 6.0 | 0.00 | 0.00 | 0.00 | 38 | 1021.0 |
| 20260503182639 | 76 | 53 | 3.0 | 4.0 | 0.00 | 0.00 | 0.00 | 37 | 1021.0 |
| 20260503182140 | 75 | 323 | 1.0 | 3.0 | 0.00 | 0.00 | 0.00 | 37 | 1022.0 |
| 20260503181639 | 74 | 63 | 3.0 | 4.0 | 0.00 | 0.00 | 0.00 | 38 | 1022.0 |
| 20260503181142 | 75 | 4 | 2.0 | 5.0 | 0.00 | 0.00 | 0.00 | 37 | 1022.0 |
| 20260503180640 | 74 | 21 | 2.0 | 5.0 | 0.00 | 0.00 | 0.00 | 38 | 1022.0 |
| 20260503180139 | 74 | 41 | 3.0 | 4.0 | 0.00 | 0.00 | 0.00 | 38 | 1022.0 |
| 20260503175639 | 75 | 345 | 2.0 | 4.0 | 0.00 | 0.00 | 0.00 | 37 | 1022.0 |
| 20260503175139 | 75 | 70 | 1.0 | 3.0 | 0.00 | 0.00 | 0.00 | 38 | 1022.0 |